Weather History for Olympia, WA

Change the Weather History Date:

Sunday, April 27, 2014

  Actual Average Record
Temperature  
Mean Temperature 46 °F 50 °F  
Max Temperature 52 °F 61 °F 87 °F (1987)
Min Temperature 40 °F 39 °F 26 °F (1954)
Degree Days  
Heating Degree Days 19 15  
Month to date heating degree days 428 457  
Since 1 July heating degree days 4788 4815  
Cooling Degree Days 0 0  
Month to date cooling degree days 0 0  
Year to date cooling degree days 0 0  
Moisture  
Dew Point 41 °F    
Average Humidity 85    
Maximum Humidity 96    
Minimum Humidity 74    
Precipitation  
Precipitation 0.29 in 0.09 in 1.49 in (1962)
Month to date precipitation 4.26 3.27  
Year to date precipitation 26.47 21.67  
Sea Level Pressure  
Sea Level Pressure 29.86 in    
Wind  
Wind Speed 7 mph (SW)    
Max Wind Speed 21 mph    
Max Gust Speed 29 mph    
Visibility 8 miles    
Events Rain    
T = Trace of Precipitation, MM = Missing Value Source: NWS Daily Summary

Daily Weather History Graph

Daily Weather History Graph

Search for Another Location

Airport:

Trip Planner

Search our weather history database for the weather conditions in past years. The results will help you decide how hot, cold, wet, or windy it might be!

Date:

Astronomy

Apr. 27, 2014 Rise Set
Actual Time 6:02 AM PDT 8:16 PM PDT
Civil Twilight 5:29 AM PDT 8:50 PM PDT
Nautical Twilight 4:47 AM PDT 9:31 PM PDT
Astronomical Twilight 4:01 AM PDT 10:18 PM PDT
Moon 5:13 AM PDT (4/27) 6:51 PM PDT (4/27)
Length of Visible Light 15h 21m
Length of Day
14h 14m
Waning Crescent, 3% of the Moon is Illuminated
Apr 27
Waning Crescent
Apr 28
New
May 6
First Quarter
May 14
Full
May 21
Last Quarter

Hourly Weather History & Observations

Time (PDT) Temp. Windchill Dew Point Humidity Pressure Visibility Wind Dir Wind Speed Gust Speed Precip Events Conditions
12:03 AM 45.0 °F 39.7 °F 43.0 °F 93% 29.67 in 1.8 mi SSW 10.4 mph 19.6 mph 0.05 in Rain Heavy Rain
12:08 AM 45.0 °F 39.3 °F 42.1 °F 90% 29.67 in 2.0 mi SSW 11.5 mph - 0.06 in Rain Light Rain
12:12 AM 45.0 °F 38.5 °F 42.1 °F 90% 29.67 in 4.0 mi SSW 13.8 mph - 0.06 in Rain Light Rain
12:23 AM 45.0 °F 39.3 °F 42.1 °F 90% 29.67 in 10.0 mi SSW 11.5 mph - 0.06 in   Overcast
12:54 AM 45.0 °F 40.1 °F 42.1 °F 90% 29.70 in 3.0 mi SSW 9.2 mph - 0.11 in Rain Rain
1:03 AM 45.0 °F 41.2 °F 43.0 °F 93% 29.69 in 4.0 mi South 6.9 mph - 0.02 in Rain Light Rain
1:54 AM 44.1 °F 40.8 °F 42.1 °F 93% 29.71 in 10.0 mi SSW 5.8 mph - 0.02 in   Mostly Cloudy
2:07 AM 43.0 °F 39.5 °F 41.0 °F 93% 29.71 in 10.0 mi South 5.8 mph - N/A   Mostly Cloudy
2:41 AM 44.1 °F 41.5 °F 42.1 °F 93% 29.72 in 4.0 mi SW 4.6 mph - 0.00 in Rain Light Rain
2:54 AM 44.1 °F 41.5 °F 42.1 °F 93% 29.73 in 5.0 mi SSW 4.6 mph - 0.02 in Rain Light Rain
3:54 AM 41.0 °F 36.4 °F 39.9 °F 96% 29.74 in 10.0 mi South 6.9 mph - 0.00 in   Partly Cloudy
4:22 AM 43.0 °F 41.3 °F 41.0 °F 93% 29.74 in 10.0 mi WSW 3.5 mph - 0.01 in   Overcast
4:54 AM 43.0 °F 38.2 °F 41.0 °F 93% 29.76 in 10.0 mi SSW 8.1 mph - 0.01 in   Mostly Cloudy
5:16 AM 42.1 °F 38.4 °F 39.9 °F 92% 29.75 in 10.0 mi SSW 5.8 mph - N/A   Mostly Cloudy
5:29 AM 43.0 °F 38.8 °F 41.0 °F 93% 29.76 in 10.0 mi SSW 6.9 mph - N/A   Mostly Cloudy
5:36 AM 43.0 °F 38.2 °F 41.0 °F 93% 29.76 in 10.0 mi SSW 8.1 mph - N/A   Mostly Cloudy
5:54 AM 41.0 °F 35.8 °F 39.0 °F 93% 29.77 in 10.0 mi South 8.1 mph - N/A   Partly Cloudy
6:54 AM 41.0 °F 37.1 °F 39.9 °F 96% 29.79 in 9.0 mi South 5.8 mph - N/A   Clear
7:28 AM 43.0 °F 40.3 °F 41.0 °F 93% 29.82 in 2.5 mi West 4.6 mph - 0.01 in Rain Light Rain
7:36 AM 43.0 °F 39.5 °F 41.0 °F 93% 29.82 in 3.0 mi SSW 5.8 mph - 0.02 in Rain Light Rain
7:54 AM 44.1 °F 40.1 °F 41.0 °F 89% 29.83 in 10.0 mi SSW 6.9 mph - 0.03 in Rain Light Rain
8:54 AM 45.0 °F 40.1 °F 39.9 °F 82% 29.83 in 10.0 mi SSW 9.2 mph - 0.00 in   Mostly Cloudy
9:46 AM 45.0 °F 40.1 °F 41.0 °F 86% 29.85 in 2.5 mi SSW 9.2 mph - 0.01 in Rain Rain
9:54 AM 45.0 °F 40.6 °F 39.9 °F 82% 29.86 in 5.0 mi SW 8.1 mph - 0.02 in Rain Light Rain
10:04 AM 45.0 °F 40.1 °F 42.1 °F 90% 29.86 in 5.0 mi SSW 9.2 mph - 0.00 in Rain Light Rain
10:54 AM 48.0 °F - 42.1 °F 80% 29.87 in 10.0 mi SSW 12.7 mph 20.7 mph 0.01 in   Mostly Cloudy
11:54 AM 48.9 °F - 43.0 °F 80% 29.87 in 10.0 mi South 11.5 mph - 0.00 in Rain Light Rain
12:54 PM 48.2 °F - 42.8 °F 82% 29.89 in 8.0 mi WNW 8.1 mph - N/A Rain Rain
1:54 PM 50.0 °F - 43.0 °F 77% 29.90 in 8.0 mi Variable 3.5 mph - 0.09 in Rain Light Rain
2:14 PM 46.0 °F 39.3 °F 41.0 °F 83% 29.91 in 8.0 mi West 16.1 mph 27.6 mph 0.02 in Rain Rain
2:54 PM 48.9 °F - 39.9 °F 71% 29.93 in 8.0 mi WSW 10.4 mph 20.7 mph 0.02 in Rain Light Rain
3:54 PM 50.0 °F - 42.1 °F 74% 29.95 in 10.0 mi WSW 6.9 mph - 0.00 in   Overcast
4:54 PM 46.9 °F - 39.9 °F 77% 29.97 in 10.0 mi WSW 11.5 mph - 0.01 in Rain Light Rain
5:54 PM 50.0 °F - 39.9 °F 68% 29.99 in 10.0 mi NW 10.4 mph - 0.00 in   Scattered Clouds
6:54 PM 46.0 °F 43.1 °F 41.0 °F 83% 30.02 in 10.0 mi WSW 5.8 mph - 0.01 in Rain Light Rain
7:54 PM 46.0 °F 42.5 °F 39.9 °F 79% 30.04 in 10.0 mi SW 6.9 mph - 0.00 in   Clear
8:54 PM 44.1 °F 39.5 °F 39.9 °F 85% 30.06 in 10.0 mi SW 8.1 mph - N/A   Clear
9:54 PM 43.0 °F 40.3 °F 39.0 °F 86% 30.10 in 10.0 mi SSW 4.6 mph - N/A   Scattered Clouds
10:46 PM 43.0 °F 40.3 °F 39.0 °F 86% 30.11 in 10.0 mi West 4.6 mph - 0.00 in   Overcast
10:54 PM 43.0 °F - 39.0 °F 86% 30.12 in 10.0 mi Calm Calm - 0.00 in   Mostly Cloudy
11:54 PM 41.0 °F - 37.9 °F 89% 30.15 in 9.0 mi Calm Calm - 0.00 in Rain Light Rain